This is the latest recevied weather packets stored in our database for station/object SQ8AQX-13. If no packets are shown the sender has not sent any weather packets the latest 10 day(s).
| Time | Temp. | Humidity | Pressure | Rain* | Wind** | Luminosity | Snow |
|---|---|---|---|---|---|---|---|
| 1777734801 | 23.33° C | 31% | 1024.2 hPa | - | - | - | - |
| 1777733001 | 22.22° C | 30% | 1024.4 hPa | - | - | - | - |
| 1777732401 | 21.67° C | 33% | 1024.5 hPa | - | - | - | - |
| 1777731801 | 21.67° C | 33% | 1024.6 hPa | - | - | - | - |
| 1777730000 | 21.67° C | 34% | 1024.9 hPa | - | - | - | - |
| 1777729400 | 21.67° C | 35% | 1025 hPa | - | - | - | - |
| 1777728800 | 21.67° C | 33% | 1025.1 hPa | - | - | - | - |
| 1777727000 | 20.56° C | 35% | 1025.5 hPa | - | - | - | - |
| 1777726400 | 20° C | 36% | 1025.6 hPa | - | - | - | - |
| 1777725800 | 21.11° C | 34% | 1025.8 hPa | - | - | - | - |
| 1777723999 | 20.56° C | 43% | 1026.1 hPa | - | - | - | - |
| 1777723399 | 20.56° C | 36% | 1026.3 hPa | - | - | - | - |
| 1777722801 | 21.67° C | 34% | 1026.4 hPa | - | - | - | - |
| 1777720993 | 21.11° C | 34% | 1026.7 hPa | - | - | - | - |
| 1777717992 | 20° C | 37% | 1027.2 hPa | - | - | - | - |
| 1777717392 | 20° C | 38% | 1027.3 hPa | - | - | - | - |
| 1777716792 | 18.89° C | 38% | 1027.3 hPa | - | - | - | - |
| 1777716192 | 18.89° C | 39% | 1027.5 hPa | - | - | - | - |
| 1777714405 | 17.78° C | 43% | 1027.7 hPa | - | - | - | - |
| 1777713791 | 17.22° C | 42% | 1027.9 hPa | - | - | - | - |
| 1777713191 | 17.78° C | 40% | 1027.9 hPa | - | - | - | - |
| 1777711391 | 17.78° C | 42% | 1028.1 hPa | - | - | - | - |
| 1777710791 | 17.78° C | 41% | 1028.1 hPa | - | - | - | - |
| 1777710191 | 16.67° C | 44% | 1028.2 hPa | - | - | - | - |
| 1777708390 | 16.11° C | 49% | 1028.4 hPa | - | - | - | - |
* Rain since midnight (hover to see other rain measurements)
** Current wind speed in m/s (hover to see current wind gust speed)